Weather History for Steamboat Springs, CO

Change the Weather History Date:

Thursday, January 2, 2014

  Actual Average Record
Temperature  
Mean Temperature 14 °F -  
Max Temperature 29 °F 21 °F 50 °F (1922)
Min Temperature 0 °F -4 °F -39 °F (1979)
Degree Days  
Heating Degree Days 50    
Moisture  
Dew Point 7 °F    
Average Humidity 79    
Maximum Humidity 94    
Minimum Humidity 49    
Precipitation  
Precipitation 0.00 in - - ()
Sea Level Pressure  
Sea Level Pressure 30.30 in    
Wind  
Wind Speed 0 mph (SE)    
Max Wind Speed 5 mph    
Max Gust Speed -    
Visibility 9 miles    
Events      
Averages and records for this station are not official NWS values.
T = Trace of Precipitation, MM = Missing Value Source: NWS Daily Summary

Daily Weather History Graph

Daily Weather History Graph

Search for Another Location

Airport:

Trip Planner

Search our weather history database for the weather conditions in past years. The results will help you decide how hot, cold, wet, or windy it might be!

Date:

Astronomy

Jan. 02, 2014 Rise Set
Actual Time 7:31 AM MST 4:52 PM MST
Civil Twilight 7:00 AM MST 5:23 PM MST
Nautical Twilight 6:26 AM MST 5:57 PM MST
Astronomical Twilight 5:53 AM MST 6:30 PM MST
Moon 8:14 AM MST (1/2) 6:53 PM MST (1/2)
Length of Visible Light 10h 22m
Length of Day
9h 21m
Waxing Crescent, 3% of the Moon is Illuminated
Jan 2
Waxing Crescent
Jan 7
First Quarter
Jan 15
Full
Jan 23
Last Quarter
Jan 30
New

Hourly Weather History & Observations

Time (MST) Temp. Windchill Dew Point Humidity Pressure Visibility Wind Dir Wind Speed Gust Speed Precip Events Conditions
12:15 AM 11.3 °F - 9.9 °F 94% 30.34 in 0.8 mi Calm Calm - N/A   Unknown
12:35 AM 9.1 °F - 7.2 °F 92% 30.34 in 0.5 mi Calm Calm - N/A   Unknown
12:55 AM 9.3 °F - 7.2 °F 91% 30.34 in 0.8 mi Calm Calm - N/A   Unknown
1:15 AM 7.2 °F - 4.6 °F 89% 30.34 in 1.8 mi Calm Calm - N/A   Unknown
1:35 AM 7.7 °F - 4.6 °F 87% 30.34 in 10.0 mi Calm Calm - N/A   Clear
1:55 AM 7.5 °F - 4.8 °F 89% 30.34 in 10.0 mi Calm Calm - N/A   Clear
2:15 AM 7.5 °F - 4.8 °F 89% 30.34 in 1.8 mi Calm Calm - N/A   Unknown
2:35 AM 5.9 °F - 2.5 °F 86% 30.35 in 0.5 mi Calm Calm - N/A   Mostly Cloudy
2:55 AM 6.8 °F - 4.5 °F 90% 30.35 in 7.0 mi Calm Calm - N/A   Scattered Clouds
3:15 AM 4.3 °F - -0.0 °F 82% 30.36 in 10.0 mi Calm Calm - N/A   Clear
3:35 AM 3.7 °F - -0.0 °F 84% 30.36 in 10.0 mi Calm Calm - N/A   Clear
3:55 AM 5.9 °F - 3.6 °F 90% 30.35 in 10.0 mi Calm Calm - N/A   Clear
4:15 AM 2.3 °F - -2.4 °F 81% 30.35 in 10.0 mi Calm Calm - N/A   Clear
4:35 AM 4.1 °F - 1.2 °F 88% 30.35 in 10.0 mi Calm Calm - N/A   Clear
4:55 AM 3.9 °F - 0.3 °F 85% 30.36 in 10.0 mi Calm Calm - N/A   Clear
5:15 AM 0.9 °F - -3.3 °F 83% 30.35 in 7.0 mi Calm Calm - N/A   Clear
5:35 AM 1.4 °F - -2.4 °F 84% 30.36 in 10.0 mi Calm Calm - N/A   Scattered Clouds
5:55 AM 3.7 °F - 0.7 °F 87% 30.37 in 7.0 mi Calm Calm - N/A   Clear
6:15 AM 2.8 °F - -0.2 °F 87% 30.37 in 10.0 mi Calm Calm - N/A   Clear
6:35 AM 1.8 °F - -2.6 °F 82% 30.37 in 10.0 mi Calm Calm - N/A   Clear
6:55 AM 0.5 °F - -4.0 °F 81% 30.37 in 7.0 mi Calm Calm - N/A   Clear
7:15 AM 0.5 °F - -4.0 °F 81% 30.37 in 10.0 mi Calm Calm - N/A   Clear
7:35 AM 0.5 °F - -4.0 °F 81% 30.37 in 10.0 mi Calm Calm - N/A   Clear
7:55 AM -0.0 °F - -4.2 °F 83% 30.38 in 4.0 mi Calm Calm - N/A   Clear
8:15 AM 2.7 °F - -0.2 °F 88% 30.38 in 7.0 mi Calm Calm - N/A   Clear
8:35 AM 4.5 °F - 1.4 °F 87% 30.38 in 10.0 mi Calm Calm - N/A   Clear
8:55 AM -0.0 °F - -4.4 °F 82% 30.38 in 7.0 mi Calm Calm - N/A   Clear
9:15 AM 7.0 °F - 4.8 °F 91% 30.38 in 10.0 mi Calm Calm - N/A   Clear
9:35 AM 6.1 °F - 3.6 °F 89% 30.38 in 10.0 mi Calm Calm - N/A   Clear
9:55 AM 9.9 °F - 7.9 °F 92% 30.38 in 10.0 mi Calm Calm - N/A   Clear
10:15 AM 10.8 °F - 8.6 °F 91% 30.37 in 10.0 mi Calm Calm - N/A   Clear
10:35 AM 13.1 °F - 11.5 °F 93% 30.37 in 10.0 mi Calm Calm - N/A   Clear
10:55 AM 14.2 °F - 12.6 °F 93% 30.36 in 10.0 mi Calm Calm - N/A   Clear
11:15 AM 15.8 °F - 13.5 °F 90% 30.35 in 10.0 mi Calm Calm - N/A   Clear
11:35 AM 18.5 °F - 12.2 °F 76% 30.34 in 10.0 mi Calm Calm - N/A   Clear
11:55 AM 21.7 °F - 11.5 °F 65% 30.32 in 10.0 mi Calm Calm - N/A   Clear
12:15 PM 24.1 °F - 12.0 °F 60% 30.31 in 10.0 mi Calm Calm - N/A   Clear
12:35 PM 22.1 °F - 9.3 °F 58% 30.30 in 10.0 mi Calm Calm - N/A   Clear
12:55 PM 20.1 °F - 8.2 °F 60% 30.30 in 10.0 mi Calm Calm - N/A   Clear
1:15 PM 21.7 °F - 8.4 °F 57% 30.28 in 10.0 mi Calm Calm - N/A   Clear
1:35 PM 22.5 °F - 9.1 °F 57% 30.27 in 10.0 mi Calm Calm - N/A   Clear
1:55 PM 21.0 °F - 8.4 °F 58% 30.27 in 10.0 mi Calm Calm - N/A   Clear
2:15 PM 23.0 °F - 9.1 °F 55% 30.27 in 10.0 mi Calm Calm - N/A   Clear
2:35 PM 26.8 °F - 9.9 °F 49% 30.26 in 10.0 mi Calm Calm - N/A   Mostly Cloudy
2:55 PM 29.1 °F - 13.5 °F 52% 30.26 in 10.0 mi Calm Calm - N/A   Overcast
3:15 PM 25.7 °F - 11.3 °F 55% 30.27 in 10.0 mi Calm Calm - N/A   Overcast
3:35 PM 24.4 °F - 11.3 °F 57% 30.26 in 10.0 mi Calm Calm - N/A   Overcast
3:55 PM 22.6 °F - 11.5 °F 62% 30.26 in 10.0 mi Calm Calm - N/A   Overcast
4:15 PM 21.6 °F - 11.5 °F 65% 30.26 in 10.0 mi Calm Calm - N/A   Overcast
4:35 PM 20.1 °F - 10.9 °F 68% 30.26 in 10.0 mi Calm Calm - N/A   Overcast
4:55 PM 19.2 °F - 10.9 °F 70% 30.25 in 10.0 mi Calm Calm - N/A   Scattered Clouds
5:15 PM 19.8 °F - 10.8 °F 68% 30.25 in 10.0 mi Calm Calm - N/A   Mostly Cloudy
5:35 PM 18.3 °F - 11.3 °F 74% 30.25 in 10.0 mi Calm Calm - N/A   Mostly Cloudy
5:55 PM 19.4 °F - 11.8 °F 72% 30.24 in 10.0 mi Calm Calm - N/A   Overcast
6:15 PM 20.1 °F - 12.4 °F 72% 30.25 in 10.0 mi Calm Calm - N/A   Overcast
6:35 PM 16.3 °F - 10.2 °F 77% 30.24 in 10.0 mi Calm Calm - N/A   Overcast
6:55 PM 18.9 °F - 12.2 °F 75% 30.24 in 10.0 mi Calm Calm - N/A   Overcast
7:15 PM 17.8 °F - 10.8 °F 74% 30.24 in 10.0 mi Calm Calm - N/A   Overcast
7:35 PM 18.1 °F - 11.8 °F 76% 30.23 in 10.0 mi Calm Calm - N/A   Overcast
7:55 PM 18.3 °F - 12.0 °F 76% 30.23 in 10.0 mi Calm Calm - N/A   Overcast
8:15 PM 17.6 °F - 12.0 °F 79% 30.23 in 10.0 mi Calm Calm - N/A   Mostly Cloudy
8:35 PM 17.2 °F 10.2 °F 11.8 °F 79% 30.23 in 10.0 mi SE 4.6 mph - N/A   Scattered Clouds
8:55 PM 19.0 °F - 12.6 °F 76% 30.22 in 10.0 mi Calm Calm - N/A   Scattered Clouds
9:15 PM 17.6 °F - 12.0 °F 79% 30.21 in 10.0 mi Calm Calm - N/A   Clear
9:35 PM 16.0 °F - 10.9 °F 81% 30.22 in 10.0 mi Calm Calm - N/A   Clear
9:55 PM 13.6 °F - 9.0 °F 82% 30.22 in 10.0 mi Calm Calm - N/A   Clear
10:15 PM 14.2 °F - 11.5 °F 89% 30.21 in 10.0 mi Calm Calm - N/A   Clear
10:35 PM 14.4 °F - 11.7 °F 89% 30.21 in 10.0 mi Calm Calm - N/A   Clear
10:55 PM 16.7 °F - 12.2 °F 82% 30.21 in 10.0 mi Calm Calm - N/A   Clear
11:15 PM 13.8 °F - 10.6 °F 87% 30.20 in 10.0 mi Calm Calm - N/A   Clear
11:35 PM 12.7 °F - 11.1 °F 93% 30.20 in 10.0 mi Calm Calm - N/A   Clear
11:55 PM 12.2 °F - 10.8 °F 94% 30.20 in 10.0 mi Calm Calm - N/A   Clear